User: anonymous   Login
Location: Franzen
(48.6167°N, 15.3833°E)
Time: 01:25:13
(UTC+00:00)
Language:

Cosmos 1745 Rocket - Orbit

View from above orbital plane
View from above orbital plane
View from above satellite
View from above satellite

Ground track
Ground track

The orbit data is extracted from the following two-line orbital elements,

1 16728U 86037B   21174.52692941  .00000079  00000-0  64221-4 0  9996
2 16728  82.9547 329.3972 0032078  59.9320   3.6145 13.76749504762217
Epoch (UTC): 23 June 2021 12:38:46
Eccentricity: 0.0032078
inclination: 82.9547°
perigee height: 952 km
apogee height: 999 km
right ascension of ascending node: 329.3972°
argument of perigee: 59.9320°
revolutions per day: 13.76749504
mean anomaly at epoch: 3.6145°
orbit number at epoch: 76221

The dashed part of the orbit path shows where the satellite is in the earth's shadow,  

DLR